Location: Unspecified
(0.0000°N, 0.0000°E)
Time: 07:18:08
(UTC+02:00)

PROBA 2 - Visible Passes

Search period start: 20 April 2018 00:00
Search period end: 30 April 2018 00:00
Orbit: 705 x 726 km, 98.2° (Epoch: 19 April)

Date Brightness Start Highest point End Pass type
(mag) Time Alt. Az. Time Alt. Az. Time Alt. Az.
20 Apr ? 20:55:51 10° NNW 20:59:55 28° WNW 21:04:00 10° SW visible
22 Apr ? 20:51:25 10° NNW 20:55:38 32° WNW 20:59:55 10° SW visible
24 Apr ? 20:47:00 10° NNW 20:51:23 36° WNW 20:55:48 10° SW visible
26 Apr ? 20:42:37 10° N 20:47:07 41° WNW 20:51:40 10° SSW visible
27 Apr ? 07:29:19 10° SE 07:32:53 21° ENE 07:36:25 10° NNE visible
28 Apr ? 20:38:15 10° N 20:42:51 47° WNW 20:47:29 10° SSW visible
29 Apr ? 07:25:21 10° ESE 07:28:37 18° ENE 07:31:52 10° NE visible
29 Apr ? 21:28:03 10° WNW 21:29:35 11° WNW 21:31:08 10° W visible
